| time (UTC) | temp F | wind direction | speed MPH | gust MPH | rain 1hr in | rain 24hr in | rain mn in | humidity % | barometer mb |
| 20260502130519 | 50 | 233 | 3.0 | 7.0 | 0.00 | 0.00 | 0.00 | 66 | 1014.9 |
| 20260502123514 | 48 | 294 | 1.0 | 2.0 | 0.00 | 0.00 | 0.00 | 68 | 1014.7 |
| 20260502122513 | 48 | 285 | 6.0 | 8.0 | 0.00 | 0.00 | 0.00 | 68 | 1014.7 |
| 20260502121513 | 48 | 259 | 2.0 | 3.0 | 0.00 | 0.00 | 0.00 | 69 | 1015.0 |
| 20260502120513 | 48 | 315 | 2.0 | 3.0 | 0.00 | 0.00 | 0.00 | 69 | 1014.8 |
| 20260502115508 | 47 | 180 | 0.0 | 0.0 | 0.00 | 0.00 | 0.00 | 70 | 1014.9 |
| 20260502114506 | 47 | 234 | 5.0 | 7.0 | 0.00 | 0.00 | 0.00 | 71 | 1014.8 |
| 20260502113506 | 47 | 291 | 2.0 | 4.0 | 0.00 | 0.00 | 0.00 | 71 | 1014.6 |
| 20260502112502 | 46 | 59 | 2.0 | 2.0 | 0.00 | 0.00 | 0.00 | 73 | 1014.9 |
| 20260502111502 | 46 | 291 | 1.0 | 2.0 | 0.00 | 0.00 | 0.00 | 74 | 1014.9 |
| 20260502110457 | 46 | 239 | 2.0 | 3.0 | 0.00 | 0.00 | 0.00 | 73 | 1014.7 |
| 20260502105452 | 46 | 219 | 1.0 | 1.0 | 0.00 | 0.00 | 0.00 | 74 | 1014.8 |
| 20260502104453 | 46 | 196 | 3.0 | 4.0 | 0.00 | 0.00 | 0.00 | 73 | 1014.4 |
| 20260502103447 | 46 | 1 | 3.0 | 3.0 | 0.00 | 0.00 | 0.00 | 73 | 1014.3 |
| 20260502102447 | 46 | 245 | 2.0 | 2.0 | 0.00 | 0.00 | 0.00 | 73 | 1014.3 |
| 20260502101442 | 46 | 352 | 7.0 | 9.0 | 0.00 | 0.00 | 0.00 | 72 | 1014.1 |
| 20260502100439 | 47 | 224 | 5.0 | 7.0 | 0.00 | 0.00 | 0.00 | 72 | 1014.0 |
| 20260502091425 | 48 | 213 | 0.0 | 0.0 | 0.00 | 0.00 | 0.00 | 70 | 1013.8 |
| 20260502090425 | 49 | 248 | 3.0 | 4.0 | 0.00 | 0.00 | 0.00 | 69 | 1013.6 |
| 20260502071354 | 53 | 143 | 1.0 | 1.0 | 0.00 | 0.00 | 0.00 | 72 | 1012.9 |
| 20260502070350 | 53 | 218 | 0.0 | 0.0 | 0.00 | 0.00 | 0.00 | 72 | 1013.0 |
| 20260502065346 | 53 | 219 | 0.0 | 0.0 | 0.00 | 0.00 | 0.00 | 71 | 1013.0 |
| 20260502064342 | 53 | 220 | 0.0 | 0.0 | 0.00 | 0.00 | 0.00 | 71 | 1013.0 |
| 20260502063342 | 53 | 252 | 1.0 | 1.0 | 0.00 | 0.00 | 0.00 | 71 | 1012.9 |
| 20260502062337 | 53 | 223 | 0.0 | 0.0 | 0.00 | 0.00 | 0.00 | 69 | 1013.0 |
| 20260502061333 | 53 | 210 | 1.0 | 1.0 | 0.00 | 0.00 | 0.00 | 69 | 1013.2 |
| 20260502060329 | 53 | 223 | 1.0 | 2.0 | 0.00 | 0.00 | 0.00 | 69 | 1013.1 |
| 20260502055325 | 53 | 260 | 1.0 | 1.0 | 0.00 | 0.00 | 0.00 | 69 | 1013.2 |
| 20260502054322 | 54 | 211 | 0.0 | 0.0 | 0.00 | 0.00 | 0.00 | 69 | 1013.3 |
| 20260502053322 | 54 | 8 | 2.0 | 2.0 | 0.00 | 0.00 | 0.00 | 69 | 1013.1 |
| 20260502052318 | 54 | 252 | 0.0 | 1.0 | 0.00 | 0.00 | 0.00 | 69 | 1013.4 |
| 20260502051314 | 54 | 331 | 1.0 | 1.0 | 0.00 | 0.00 | 0.00 | 68 | 1013.4 |
| 20260502050312 | 54 | 272 | 1.0 | 1.0 | 0.00 | 0.00 | 0.00 | 69 | 1013.3 |
| 20260502045311 | 54 | 222 | 1.0 | 1.0 | 0.00 | 0.00 | 0.00 | 68 | 1013.3 |
| 20260502044310 | 55 | 222 | 0.0 | 0.0 | 0.00 | 0.00 | 0.00 | 67 | 1013.3 |
| 20260502043305 | 55 | 227 | 1.0 | 2.0 | 0.00 | 0.00 | 0.00 | 67 | 1013.4 |
| 20260502042305 | 55 | 215 | 0.0 | 0.0 | 0.00 | 0.00 | 0.00 | 68 | 1013.1 |
| 20260502041257 | 55 | 220 | 0.0 | 0.0 | 0.00 | 0.00 | 0.00 | 67 | 1012.9 |
| 20260502040256 | 55 | 213 | 0.0 | 1.0 | 0.00 | 0.00 | 0.00 | 68 | 1012.6 |
| 20260502035255 | 55 | 239 | 2.0 | 2.0 | 0.00 | 0.00 | 0.00 | 67 | 1012.7 |
| 20260502034251 | 56 | 216 | 2.0 | 2.0 | 0.00 | 0.00 | 0.00 | 68 | 1012.6 |
| 20260502033246 | 56 | 292 | 2.0 | 4.0 | 0.00 | 0.00 | 0.00 | 69 | 1012.9 |
| 20260502032244 | 56 | 262 | 3.0 | 3.0 | 0.00 | 0.00 | 0.00 | 70 | 1012.6 |
| 20260502031240 | 56 | 287 | 2.0 | 2.0 | 0.00 | 0.00 | 0.00 | 71 | 1012.4 |
| 20260502030236 | 57 | 254 | 3.0 | 4.0 | 0.00 | 0.00 | 0.00 | 70 | 1012.4 |
| 20260502025231 | 58 | 242 | 3.0 | 4.0 | 0.00 | 0.00 | 0.00 | 67 | 1012.1 |
| 20260502024226 | 58 | 221 | 2.0 | 3.0 | 0.00 | 0.00 | 0.00 | 64 | 1011.7 |
| 20260502023221 | 58 | 250 | 1.0 | 2.0 | 0.00 | 0.00 | 0.00 | 65 | 1011.6 |
| 20260502022221 | 58 | 215 | 1.0 | 1.0 | 0.00 | 0.00 | 0.00 | 64 | 1011.4 |
| 20260502021216 | 59 | 212 | 0.0 | 0.0 | 0.00 | 0.00 | 0.00 | 58 | 1011.4 |
| 20260502020215 | 59 | 206 | 0.0 | 0.0 | 0.00 | 0.00 | 0.00 | 56 | 1011.7 |
| 20260502015215 | 60 | 185 | 1.0 | 1.0 | 0.00 | 0.00 | 0.00 | 56 | 1011.4 |
| 20260502014210 | 59 | 239 | 1.0 | 2.0 | 0.00 | 0.00 | 0.00 | 55 | 1011.5 |
| 20260502013207 | 58 | 185 | 1.0 | 1.0 | 0.00 | 0.00 | 0.00 | 58 | 1011.4 |
| 20260502012203 | 58 | 221 | 0.0 | 0.0 | 0.00 | 0.00 | 0.00 | 67 | 1011.4 |
| 20260502011201 | 58 | 225 | 0.0 | 0.0 | 0.00 | 0.00 | 0.00 | 64 | 1010.8 |
| 20260502010200 | 59 | 208 | 1.0 | 2.0 | 0.00 | 0.00 | 0.00 | 61 | 1010.6 |
| 20260502005156 | 59 | 212 | 1.0 | 1.0 | 0.00 | 0.00 | 0.00 | 58 | 1010.4 |
| 20260502004154 | 59 | 219 | 0.0 | 0.0 | 0.00 | 0.00 | 0.00 | 54 | 1010.1 |
| 20260502003149 | 60 | 213 | 0.0 | 0.0 | 0.00 | 0.00 | 0.00 | 50 | 1010.0 |
| 20260502002149 | 61 | 203 | 0.0 | 0.0 | 0.00 | 0.00 | 0.00 | 48 | 1009.8 |
| 20260502001149 | 61 | 206 | 0.0 | 0.0 | 0.00 | 0.00 | 0.00 | 48 | 1010.1 |
| 20260502000144 | 61 | 197 | 0.0 | 1.0 | 0.00 | 0.00 | 0.00 | 49 | 1009.8 |
| 20260501235142 | 62 | 182 | 0.0 | 1.0 | 0.00 | 0.00 | 0.00 | 46 | 1009.8 |
| 20260501234141 | 62 | 149 | 2.0 | 2.0 | 0.00 | 0.00 | 0.00 | 46 | 1009.7 |
| 20260501233136 | 62 | 162 | 2.0 | 2.0 | 0.00 | 0.00 | 0.00 | 46 | 1009.7 |
| 20260501232135 | 63 | 198 | 1.0 | 2.0 | 0.00 | 0.00 | 0.00 | 44 | 1009.4 |
| 20260501231131 | 64 | 134 | 2.0 | 2.0 | 0.00 | 0.00 | 0.00 | 45 | 1009.5 |
| 20260501230127 | 64 | 144 | 5.0 | 7.0 | 0.00 | 0.00 | 0.00 | 41 | 1009.7 |
| 20260501225126 | 65 | 235 | 2.0 | 2.0 | 0.00 | 0.00 | 0.00 | 40 | 1009.5 |
| 20260501224126 | 66 | 210 | 1.0 | 2.0 | 0.00 | 0.00 | 0.00 | 40 | 1009.5 |
| 20260501223125 | 65 | 205 | 3.0 | 4.0 | 0.00 | 0.00 | 0.00 | 40 | 1009.9 |
| 20260501222124 | 65 | 159 | 4.0 | 4.0 | 0.00 | 0.00 | 0.00 | 41 | 1009.8 |
| 20260501221124 | 65 | 173 | 2.0 | 2.0 | 0.00 | 0.00 | 0.00 | 41 | 1009.8 |
| 20260501220124 | 65 | 125 | 2.0 | 3.0 | 0.00 | 0.00 | 0.00 | 42 | 1009.9 |
| 20260501215122 | 67 | 171 | 4.0 | 9.0 | 0.00 | 0.00 | 0.00 | 39 | 1010.0 |
| 20260501214118 | 67 | 187 | 3.0 | 4.0 | 0.00 | 0.00 | 0.00 | 39 | 1010.1 |
| 20260501213117 | 66 | 227 | 1.0 | 2.0 | 0.00 | 0.00 | 0.00 | 44 | 1010.2 |
| 20260501212117 | 66 | 161 | 4.0 | 6.0 | 0.00 | 0.00 | 0.00 | 41 | 1010.3 |
| 20260501211118 | 66 | 166 | 2.0 | 4.0 | 0.00 | 0.00 | 0.00 | 41 | 1010.0 |
| 20260501210116 | 66 | 160 | 3.0 | 3.0 | 0.00 | 0.00 | 0.00 | 40 | 1010.2 |
| 20260501205116 | 67 | 139 | 3.0 | 4.0 | 0.00 | 0.00 | 0.00 | 42 | 1010.2 |
| 20260501204114 | 67 | 213 | 3.0 | 7.0 | 0.00 | 0.00 | 0.00 | 42 | 1010.3 |
| 20260501203109 | 66 | 157 | 3.0 | 6.0 | 0.00 | 0.00 | 0.00 | 40 | 1010.4 |
| 20260501202108 | 68 | 181 | 5.0 | 8.0 | 0.00 | 0.00 | 0.00 | 42 | 1010.4 |
| 20260501201107 | 67 | 121 | 7.0 | 13.0 | 0.00 | 0.00 | 0.00 | 38 | 1010.6 |
| 20260501195101 | 66 | 153 | 3.0 | 3.0 | 0.00 | 0.00 | 0.00 | 40 | 1011.2 |
| 20260501194058 | 66 | 173 | 5.0 | 9.0 | 0.00 | 0.00 | 0.00 | 40 | 1011.4 |
| 20260501193055 | 66 | 178 | 7.0 | 9.0 | 0.00 | 0.00 | 0.00 | 41 | 1011.5 |
| 20260501192054 | 65 | 149 | 3.0 | 3.0 | 0.00 | 0.00 | 0.00 | 45 | 1011.7 |
| 20260501191054 | 64 | 228 | 4.0 | 7.0 | 0.00 | 0.00 | 0.00 | 44 | 1011.8 |
| 20260501190051 | 65 | 129 | 4.0 | 8.0 | 0.00 | 0.00 | 0.00 | 41 | 1012.0 |
| 20260501185049 | 65 | 139 | 6.0 | 9.0 | 0.00 | 0.00 | 0.00 | 44 | 1012.0 |
| 20260501184045 | 65 | 243 | 2.0 | 3.0 | 0.00 | 0.00 | 0.00 | 46 | 1012.3 |
| 20260501183045 | 65 | 260 | 4.0 | 6.0 | 0.00 | 0.00 | 0.00 | 42 | 1012.6 |
| 20260501182044 | 66 | 239 | 2.0 | 3.0 | 0.00 | 0.00 | 0.00 | 45 | 1012.5 |
| 20260501181044 | 65 | 218 | 2.0 | 3.0 | 0.00 | 0.00 | 0.00 | 43 | 1012.9 |
| 20260501180043 | 64 | 194 | 2.0 | 2.0 | 0.00 | 0.00 | 0.00 | 51 | 1012.9 |
| 20260501175043 | 64 | 102 | 3.0 | 4.0 | 0.00 | 0.00 | 0.00 | 48 | 1013.0 |
| 20260501174038 | 64 | 229 | 1.0 | 2.0 | 0.00 | 0.00 | 0.00 | 47 | 1013.1 |
| 20260501173038 | 62 | 171 | 0.0 | 1.0 | 0.00 | 0.00 | 0.00 | 52 | 1013.2 |
| 20260501172035 | 64 | 102 | 3.0 | 3.0 | 0.00 | 0.00 | 0.00 | 48 | 1013.2 |
| 20260501171034 | 63 | 133 | 0.0 | 1.0 | 0.00 | 0.00 | 0.00 | 51 | 1013.4 |
| 20260501170034 | 62 | 131 | 4.0 | 4.0 | 0.00 | 0.00 | 0.00 | 52 | 1013.5 |
| 20260501165029 | 64 | 230 | 2.0 | 3.0 | 0.00 | 0.00 | 0.00 | 45 | 1013.7 |
| 20260501164028 | 62 | 272 | 2.0 | 3.0 | 0.00 | 0.00 | 0.00 | 51 | 1013.6 |
| 20260501163028 | 63 | 157 | 3.0 | 3.0 | 0.00 | 0.00 | 0.00 | 50 | 1013.9 |
| 20260501162027 | 61 | 166 | 2.0 | 2.0 | 0.00 | 0.00 | 0.00 | 54 | 1014.0 |
| 20260501161026 | 63 | 210 | 1.0 | 1.0 | 0.00 | 0.00 | 0.00 | 50 | 1014.1 |
| 20260501160021 | 64 | 129 | 2.0 | 3.0 | 0.00 | 0.00 | 0.00 | 55 | 1014.0 |
| 20260501155020 | 61 | 177 | 4.0 | 4.0 | 0.00 | 0.00 | 0.00 | 44 | 1014.7 |
| 20260501154020 | 63 | 193 | 2.0 | 3.0 | 0.00 | 0.00 | 0.00 | 48 | 1014.6 |
| 20260501153020 | 60 | 10 | 1.0 | 2.0 | 0.00 | 0.00 | 0.00 | 49 | 1014.8 |
| 20260501152014 | 60 | 223 | 1.0 | 1.0 | 0.00 | 0.00 | 0.00 | 51 | 1014.8 |
| 20260501151014 | 63 | 216 | 1.0 | 2.0 | 0.00 | 0.00 | 0.00 | 51 | 1014.9 |
| 20260501150012 | 62 | 284 | 1.0 | 3.0 | 0.00 | 0.00 | 0.00 | 49 | 1014.8 |